Regional Weather Roundup
Issued by NWS

Home | Current Version | Previous Version | Graphics & Text | Print | Product List | Glossary On
Versions: 1 2 3 4 5 6 7 8 9 10 11 12 13 14 15 16 17 18 19 20 21 22 23 24 25 26 27 28 29 30 31 32 33 34 35 36 37 38 39 40 41 42 43 44 45 46 47 48 49 50
000
ASUS43 KMKX 141800
RWRWI

WISCONSIN REGIONAL WEATHER ROUNDUP
NATIONAL WEATHER SERVICE MILWAUKEE/SULLIVAN WI
1200 PM CST SUN FEB 14 2016

NOTE: "FAIR" INDICATES FEW OR NO CLOUDS BELOW 12,000 FEET WITH NO
SIGNIFICANT WEATHER AND/OR OBSTRUCTIONS TO VISIBILITY.

WIZ001-002-006>008-014>016-023>028-141900-
NORTHWEST WISCONSIN

CITY           SKY/WX    TMP DP  RH WIND       PRES   REMARKS
SUPERIOR ARPT  FLURRIES  14   4  63 S13       30.06F WCI   0
ASHLAND        CLOUDY    13  -6  42 CALM      30.08F
6HR MIN TEMP: -20; 6HR MAX TEMP:  13;

HAYWARD        CLOUDY    12   0  58 S14G21    30.04F WCI  -3
6HR MIN TEMP:   0; 6HR MAX TEMP:  12;

SIREN          FLURRIES  13   3  64 SE9       30.05S WCI   1
CUMBERLAND     FLURRIES  10   3  72 SE13      30.03F WCI  -5
RICE LAKE      LGT SNOW  11   4  71 SE13      30.07F WCI  -4
CHETEK         LGT SNOW  11   4  72 SE8       30.07F WCI  -1
LADYSMITH      FLURRIES  14  -1  52 SE13      30.10F WCI  -1
EAU CLAIRE     NOT AVBL
MENOMONIE      CLOUDY    18   5  55 E14       30.08F WCI   5
NEW RICHMOND   FLURRIES  16   7  67 SE12      30.03F WCI   3
OSCEOLA        FLURRIES  17   7  66 SE13      30.06F WCI   3
$$

WIZ003>005-009-010-017-018-141900-
NORTH CENTRAL WISCONSIN

CITY           SKY/WX    TMP DP  RH WIND       PRES   REMARKS
MANITOWISH WTR CLOUDY    12 -11  35 S14       30.06F WCI  -3
ARBOR VITAE    CLOUDY    17 -11  29 S15G25    30.06F WCI   2
WOODRUFF       CLOUDY    17 -11  29 S15G25    30.06F WCI   2
RHINELANDER    CLOUDY    14  -8  37 S13       30.08F WCI   0
6HR MIN TEMP: -20; 6HR MAX TEMP:  14;

EAGLE RIVER    CLOUDY    13 -15  27 S12       30.09F WCI   0
LAND O LAKES   CLOUDY    17 -14  24 S16G25    30.08F WCI   1
PHILLIPS       CLOUDY    11  -7  44 S10       30.06F WCI  -2
TOMAHAWK       CLOUDY    13  -9  36 SE6       30.11F WCI   4
MEDFORD        CLOUDY    11  -3  51 SE7G17    30.08F WCI   1
MERRILL        CLOUDY    15  -5  41 S9        30.13F WCI   3
$$

WIZ029-030-035-036-043>047-141900-
CENTRAL WISCONSIN

CITY           SKY/WX    TMP DP  RH WIND       PRES   REMARKS
WAUSAU         MOSUNNY   18  -2  41 SE17      30.11F WCI   3
6HR MIN TEMP: -13; 6HR MAX TEMP:  18;

MOSINEE        NOT AVBL
MARSHFIELD     CLOUDY    15  -3  44 SE13      30.09F WCI   1
6HR MIN TEMP:  -6; 6HR MAX TEMP:  15;

STEVENS POINT  CLOUDY    14  -8  37 SE14      30.15F WCI  -1
WAUPACA        SUNNY     21   0  39 S9        30.20F WCI  11
WAUTOMA        NOT AVBL
WISC RAPIDS    CLOUDY    16  -2  45 S8        30.15F WCI   5
6HR MIN TEMP:  -6; 6HR MAX TEMP:  16;

CAMP DOUGLAS   NOT AVBL
$$

WIZ011>013-019>022-031-037>040-048>050-141900-
NORTHEAST WISCONSIN

CITY           SKY/WX    TMP DP  RH WIND       PRES   REMARKS
ANTIGO         CLOUDY    13   4  67 S21G26    30.14F WCI  -5
SHAWANO        CLOUDY    20   8  60 S9        30.23F WCI   9
OCONTO         CLOUDY    13   0  56 CALM      30.26S
STURGEON BAY   CLOUDY    16  10  79 CALM      30.25F
6HR MIN TEMP:  -6; 6HR MAX TEMP:  16;

GREEN BAY      FLURRIES  15   8  73 S6        30.23F WCI   6
6HR MIN TEMP: -13; 6HR MAX TEMP:  15; 6HR PCP: TRACE;

MANITOWOC      LGT SNOW  21  16  79 S10       30.25F VSB 1   WCI  10
APPLETON       MOSUNNY   18   5  57 SE13      30.18F WCI   4
CLINTONVILLE   CLOUDY    18   3  53 S8        30.22F WCI   7
OSHKOSH        SUNNY     20   9  62 S15G24    30.18F WCI   6
6HR MIN TEMP:  -6; 6HR MAX TEMP:  21;

$$

WIZ032>034-041-042-053>061-141900-
SOUTHWEST WISCONSIN

CITY           SKY/WX    TMP DP  RH WIND       PRES   REMARKS
LA CROSSE      LGT SNOW  15   9  76 SE16      30.09F WCI  -1
6HR MIN TEMP:  11; 6HR MAX TEMP:  15; 6HR PCP:  0.02;

SPARTA         FLURRIES  15   8  73 SE13      30.11F WCI   1
VIROQUA        CLOUDY    15  10  80 SE15      30.05F WCI  -1
BOSCOBEL       SNOW      17  12  80 VRB7      30.12F VSB 1/2 WCI   8
6HR MIN TEMP:  10; 6HR MAX TEMP:  17; 6HR PCP:  0.02;

PRAIRIE DU CHI LGT SNOW  16  11  80 SE14      30.10F VSB 1   WCI   2
PLATTEVILLE    CLOUDY    15  12  88 SE15G22   30.11F VSB 3/4 WCI   0
$$

WIZ056-057-062-063-064-067-068-141900-
SOUTH CENTRAL WISCONSIN

CITY           SKY/WX    TMP DP  RH WIND       PRES   REMARKS
REEDSBURG      LGT SNOW  15   8  75 SE9       30.14F WCI   3
BARABOO/DELLS  LGT SNOW  14   8  75 SE10      30.16S WCI   2
LONE ROCK      NOT AVBL
MINERAL POINT  SNOW      18  12  79 SE20      30.10F VSB 1/2 WCI   1
MADISON        LGT SNOW  14   8  77 SE13      30.16F WCI   0
6HR MIN TEMP:   9; 6HR MAX TEMP:  15; 6HR PCP: TRACE;

MIDDLETON      CLOUDY    17  10  77 SE12      30.17F WCI   4
WATERTOWN      FLURRIES  18   6  60 SE13      30.19F WCI   5
MONROE         LGT SNOW  14  10  85 SE14G20   30.14F WCI  -1
JANESVILLE     LGT SNOW  18  10  73 SE13      30.19F WCI   4
$$

WIZ051-052-058>065-066-070>072-141900-
SOUTHEAST WISCONSIN

CITY           SKY/WX    TMP DP  RH WIND       PRES   REMARKS
MILWAUKEE      CLOUDY    19  10  68 SE15      30.23F WCI   5
6HR MIN TEMP:   8; 6HR MAX TEMP:  19; 6HR PCP: TRACE;

WAUKESHA       CLOUDY    16   9  73 SE12G23   30.22F WCI   3
MILWAUKEE/TIMM FLURRIES  19   9  63 SE15G22   30.23F WCI   5
RACINE         CLOUDY    20   9  62 S14G23    30.25F WCI   7
6HR MIN TEMP:  10; 6HR MAX TEMP:  20; 6HR PCP: TRACE;

BURLINGTON     FLURRIES  16   5  61 SE14      30.22F WCI   1
KENOSHA        CLOUDY    18   7  62 SE17G23   30.22F WCI   3
6HR MIN TEMP:   6; 6HR MAX TEMP:  19;

FOND DU LAC    CLOUDY    20  10  65 SE20G26   30.18F WCI   4
6HR MIN TEMP:  -6; 6HR MAX TEMP:  20; 6HR PCP: TRACE;

SHEBOYGAN      LGT SNOW  20  13  74 SE14G22   30.22F WCI   7
6HR MIN TEMP:  -4; 6HR MAX TEMP:  20; 6HR PCP: TRACE;

WEST BEND      FLURRIES  19  12  73 SE10G18   30.21F WCI   8
JUNEAU         CLOUDY    17   7  64 SE18      30.20F WCI   1
$$

LSZ147-162-141900-
LAKE SUPERIOR

STATION/POSITION TIME  TEMP    WIND        PRES    WAVE
                       AIR SEA DIR/SP/G            HT/PER
                 (UTC) (F)     (DEG/KT/KT) (MB)    (FT/S)
DEVILS ISLAND    1700   11     190/  4/  6 1021.6F
SAXON HARBOR     1700                      1019.3F
$$

LMZ867-665-643>646-141900-
LAKE MICHIGAN

STATION/POSITION TIME  TEMP    WIND        PRES    WAVE
                       AIR SEA DIR/SP/G            HT/PER
                 (UTC) (F)     (DEG/KT/KT) (MB)    (FT/S)
CHAMBERS ISLAND  1700   13      40/  2/  3 1025.1F
SISTER BAY       1719   22        CALM       N/A
ALGOMA LAKESHORE 1711          190/ 22/ 28   N/A
KEWAUNEE LAKESHO 1700   16     250/  4/  5 1023.3F
SHEBOYGAN LAKESH 1700   22     170/ 30/ 33 1025.5F
PORT WASHINGTON  1700   22     160/ 22     1025.4R
MILWAUKEE LAKESH 1710   20     140/ 22/ 24   N/A
KENOSHA   LAKESH 1700   18     150/ 22/ 25 1024.0F
$$

TC  - TEMPERATURE IN CELSIUS
VSB - VISIBILITY IN STATUTE MILES
WCI - WIND CHILL INDEX
HX  - HEAT INDEX




USA.gov is the U.S. government's official web portal to all federal, state and local government web resources and services.